{"data":{"norad_id":42956,"epoch":"2026-09-19T23:31:26.707872Z","epoch_age_seconds":60334,"freshness":"FRESH","line1":"1 42956U 17061B   26262.98017023  .00000069  00000+0  17571-4 0  9998","line2":"2 42956  86.4022 345.5774 0002202  95.1026 265.0421 14.34218010468365","mean_motion":14.3421801,"eccentricity":0.0002202,"inclination_deg":86.4022,"raan_deg":345.5774,"arg_perigee_deg":95.1026,"mean_anomaly_deg":265.0421,"bstar":1.7571e-5,"rev_number":46836,"period_min":100.403145823,"perigee_km":776.09058164982,"apogee_km":779.24199741853,"semimajor_km":7155.8032895342,"source":"CELESTRAK","updated_at":"2026-09-20T09:00:36.324279Z"}}